Overview Statistics Trail Chart Weather Telemetry Raw packets
 

This is the latest recevied weather packets stored in our database for station/object KD4PMP. If no packets are shown the sender has not sent any weather packets the latest 10 day(s).

<< 4 5 6 7 8 9 10 >>
Time Temp. Humidity Pressure Rain* Wind** Luminosity Snow
1788542620 37.78° C 49% 1014.3 hPa 0 mm - - -
1788542014 37.22° C 49% 1014.4 hPa 0 mm - - -
1788541408 37.22° C 49% 1014.5 hPa 0 mm - - -
1788540801 37.22° C 52% 1014.4 hPa 0 mm - - -
1788540194 36.67° C 53% 1014.8 hPa 0 mm - - -
1788539588 36.67° C 54% 1014.8 hPa 0 mm - - -
1788538982 36.11° C 54% 1014.9 hPa 0 mm - - -
1788538376 36.11° C 55% 1015 hPa 0 mm - - -
1788537769 35.56° C 55% 1015 hPa 0 mm - - -
1788537163 35.56° C 56% 1015 hPa 0 mm - - -
1788536557 35.56° C 58% 1014.8 hPa 0 mm - - -
1788535950 35° C 59% 1014.9 hPa 0 mm - - -
1788535344 34.44° C 62% 1014.9 hPa 0 mm - - -
1788534738 34.44° C 61% 1015.1 hPa 0 mm - - -
1788534131 33.89° C 63% 1015 hPa 0 mm - - -
1788533525 33.33° C 66% 1014.9 hPa 0 mm - - -
1788532919 32.22° C 68% 1014.9 hPa 0 mm - - -
1788532312 31.67° C 70% 1014.9 hPa 0 mm - - -
1788531706 31.67° C 70% 1014.9 hPa 0 mm - - -
1788531100 31.11° C 72% 1014.8 hPa 0 mm - - -
1788530493 30.56° C 73% 1014.8 hPa 0 mm - - -
1788529887 30° C 75% 1014.8 hPa 0 mm - - -
1788529281 29.44° C 78% 1014.8 hPa 0 mm - - -
1788528674 28.89° C 78% 1014.8 hPa 0 mm - - -
1788528067 28.33° C 79% 1014.7 hPa 0 mm - - -

* Rain latest hour (hover to see other rain measurements)
** Current wind speed in m/s (hover to see current wind gust speed)